Wind_Speed
36 36 35 33 31 29 29 29 29 30 29 25 23 24 24 21 18 17 20 33 26 22 19 23 28 22 19 25 30 25 26 23 26 30 30 31 30 30 29 28 28 26 26 27 23 22 21 20 18 16 15 14 13 13 13 13 13 14 15 16 16 17 18 19 20 21 21 22 21 21 22 23 24 25 26 27 27 28 28 28 28 28 29 29 30 30
38 37 35 32 31 29 29 29 29 31 31 25 18 20 23 20 15 16 18 31 26 20 19 28 33 23 18 29 32 23 20 21 26 29 30 32 31 31 30 28 26 24 23 23 20 21 21 18 16 14 13 12 12 12 12 12 12 14 15 15 15 16 17 18 20 20 21 21 21 21 21 22 23 24 25 26 26 27 27 28 28 28 28 28 28 28
40 38 35 33 32 31 30 29 29 30 33 31 22 18 22 21 18 18 21 26 28 21 19 27 34 25 21 32 33 24 19 19 25 25 27 31 30 31 30 27 26 23 22 20 19 21 18 15 14 12 12 11 11 11 10 11 12 14 14 15 15 16 17 19 19 20 20 20 20 20 21 22 23 24 25 25 26 26 27 28 28 27 28 28 27 27
41 39 36 34 32 31 31 29 29 30 34 36 31 24 22 21 21 20 22 23 27 23 18 23 32 27 20 32 36 34 28 22 24 25 27 31 30 30 28 27 29 27 26 23 20 18 16 14 14 13 13 11 11 10 10 11 12 13 14 14 16 17 18 18 19 20 19 19 20 20 21 22 24 25 25 26 26 27 27 28 28 28 28 28 27 27
41 38 36 35 33 32 32 30 30 32 35 37 36 32 25 20 21 18 20 25 23 20 19 20 27 28 24 35 38 38 32 24 23 24 26 29 31 32 30 29 31 30 29 25 19 17 15 13 13 14 13 11 10 10 11 12 12 13 14 15 16 17 18 18 19 19 19 19 19 20 21 22 24 25 26 26 27 27 28 28 29 29 29 29 29 28
42 40 37 36 35 34 34 33 32 33 36 37 37 36 28 20 18 18 24 31 25 21 19 20 25 27 27 36 34 30 27 23 22 22 26 29 31 33 30 29 29 28 28 24 19 16 13 11 10 11 12 11 10 11 11 11 12 13 14 15 16 17 18 18 19 18 18 18 19 20 21 22 23 24 25 26 27 27 28 28 28 29 30 30 30 30
43 41 39 37 37 36 35 34 34 34 36 37 36 35 30 23 18 19 28 34 30 27 22 22 25 25 28 33 30 30 28 23 21 22 27 30 31 31 29 27 27 26 25 23 20 16 13 10 8 10 12 11 10 11 11 12 12 13 14 16 16 17 18 18 18 17 18 18 19 20 21 22 23 24 25 26 27 27 28 29 29 29 30 31 30 30
43 42 42 40 39 38 38 36 35 35 37 37 33 32 33 29 24 19 28 33 32 31 26 26 28 26 29 31 28 34 35 28 26 26 27 28 30 32 31 28 28 27 25 24 21 17 14 11 10 12 12 10 10 11 12 12 13 14 15 16 17 18 17 17 17 17 18 18 19 20 21 22 24 25 26 27 28 28 29 30 31 31 31 32 31 30
43 43 43 41 41 40 39 38 35 36 37 36 32 32 33 31 29 24 25 30 28 30 30 30 33 31 30 31 29 33 36 32 31 31 30 31 31 31 31 28 27 27 24 22 20 18 16 13 12 12 11 10 10 11 13 13 14 16 17 17 18 18 17 16 16 17 18 19 20 21 22 23 24 25 26 27 29 30 30 31 31 32 33 33 33 32
42 43 41 38 41 43 39 36 35 37 39 35 30 30 30 33 34 29 26 28 24 25 29 30 33 34 28 28 29 31 34 33 32 31 33 36 34 31 30 27 26 26 24 22 20 19 17 13 12 11 10 10 11 13 14 15 16 17 18 18 18 18 17 16 17 17 18 19 20 22 23 23 24 25 26 27 29 30 31 32 33 34 34 34 35 34
32 37 41 35 35 41 40 37 37 39 38 35 30 26 29 37 39 33 27 29 28 25 26 25 29 34 30 26 27 29 32 32 30 31 33 36 35 32 31 28 26 25 24 22 19 18 16 12 12 11 10 11 12 14 16 17 18 18 18 18 18 18 18 17 18 18 19 20 21 22 23 24 24 25 27 28 29 30 31 32 34 36 36 37 37 36
27 26 39 40 34 36 39 39 40 39 34 36 35 24 23 33 40 37 27 29 34 29 24 23 24 31 31 28 27 30 33 32 32 34 33 33 33 32 32 29 25 23 22 20 17 16 14 12 12 11 11 12 13 15 17 18 19 18 19 19 18 19 19 19 19 19 20 21 22 23 24 24 25 26 27 28 30 31 32 34 35 37 37 38 39 38
32 24 31 39 36 35 42 40 38 39 32 34 39 29 22 28 38 42 33 30 34 25 19 21 23 27 27 27 30 33 34 36 41 41 34 32 32 30 31 30 27 24 22 19 16 15 14 12 11 11 12 14 14 16 17 18 19 19 19 19 19 19 20 20 20 20 21 22 23 24 24 24 25 27 29 30 31 33 35 36 36 37 38 39 39 38
33 29 27 31 31 34 44 42 37 42 37 35 41 36 27 26 35 46 41 32 30 21 17 19 23 28 28 30 38 38 37 40 45 42 33 30 32 31 31 31 27 25 23 20 16 16 14 12 11 12 13 14 16 17 18 18 19 19 19 19 20 20 20 20 20 21 22 23 24 24 24 25 26 28 29 30 32 34 36 36 36 36 36 38 38 38
34 34 31 30 33 37 43 43 39 41 38 38 41 34 27 24 29 41 41 32 27 22 22 22 24 32 34 36 41 41 41 43 42 38 30 27 29 29 31 31 27 25 24 20 17 16 14 13 13 14 14 15 16 17 18 18 18 18 19 20 21 21 20 20 20 21 22 23 24 25 25 25 26 28 29 31 34 36 36 36 36 36 36 37 38 37
33 36 33 30 36 39 39 39 37 34 34 40 42 33 29 28 24 29 34 31 25 22 24 27 30 39 40 39 41 42 43 42 39 33 26 26 28 29 30 31 28 26 24 21 19 17 15 14 14 15 16 16 17 18 18 18 18 18 19 20 21 21 20 21 21 21 23 24 25 25 26 26 27 29 31 33 36 36 36 37 37 36 36 38 38 38
31 31 29 26 31 35 37 39 38 32 28 37 44 36 30 27 21 21 26 27 26 25 26 29 35 43 43 42 43 45 43 40 37 33 29 28 29 29 31 31 29 26 24 22 20 17 16 15 15 16 16 17 17 18 18 18 18 19 20 21 21 21 21 21 21 22 23 24 25 26 26 27 28 30 32 34 36 36 35 36 37 37 38 39 39 39
28 22 21 24 26 28 32 37 40 35 25 28 42 40 27 23 23 22 23 25 30 31 27 28 35 41 42 43 44 44 42 38 37 36 34 31 29 30 30 29 28 26 24 22 19 17 17 15 16 17 17 18 18 18 18 18 18 19 20 21 21 21 21 21 22 22 23 25 25 26 26 27 29 31 33 35 35 34 34 35 37 38 39 40 41 39
25 19 17 24 26 23 25 31 39 38 26 23 33 36 31 28 28 29 27 25 30 32 28 28 34 37 39 42 43 41 40 37 36 36 36 33 31 31 30 28 27 26 24 21 19 18 17 16 17 18 18 18 19 19 19 18 18 19 21 22 22 22 21 22 22 23 24 25 25 26 27 28 30 32 33 34 34 33 33 35 36 37 38 40 42 39
23 23 19 23 25 21 22 32 43 41 32 25 26 32 35 31 26 30 31 24 24 28 28 29 33 35 36 40 40 40 38 36 34 33 32 33 33 32 31 28 27 26 23 21 20 18 17 18 19 19 18 19 20 20 20 19 20 21 22 23 23 22 22 22 22 23 24 25 25 26 27 29 30 32 33 33 33 32 33 34 35 36 39 41 41 36
24 28 24 21 23 24 25 32 43 46 38 30 26 27 33 32 26 28 30 25 21 22 26 29 31 33 36 38 39 39 39 37 34 31 30 31 33 33 32 29 27 26 25 23 22 20 19 20 20 20 20 21 22 22 21 21 21 22 23 24 23 23 23 22 23 24 25 25 26 27 28 29 30 31 32 33 32 32 33 34 35 36 39 42 39 31
25 29 29 24 24 29 27 27 36 43 36 27 24 24 26 30 29 28 30 28 23 21 23 25 28 33 37 36 36 37 37 37 35 32 31 32 34 34 32 29 27 27 27 25 23 22 21 20 20 21 22 22 23 23 22 22 22 23 24 24 24 24 23 23 23 24 25 26 27 27 28 29 30 30 31 32 31 31 32 33 34 36 37 40 37 28
25 29 34 30 25 25 22 20 28 36 32 24 26 27 25 28 31 31 30 29 26 22 20 22 27 34 38 38 37 35 35 37 35 33 34 35 35 34 31 30 29 28 28 27 25 24 22 21 22 23 23 23 23 24 23 23 23 24 25 25 25 24 24 24 24 24 25 26 27 27 28 29 30 30 30 31 31 31 32 32 33 35 36 37 35 28
28 30 34 31 23 18 16 17 22 29 32 29 29 29 26 27 30 28 25 26 28 25 20 22 29 33 35 37 38 35 33 34 33 32 34 35 33 33 32 31 30 30 29 28 25 24 23 23 23 24 24 24 24 25 25 24 24 25 26 25 25 25 24 24 24 25 26 27 27 27 28 29 30 29 29 30 30 30 32 32 32 34 34 35 34 28
30 31 34 32 25 21 21 23 23 26 34 33 27 28 28 27 29 29 26 26 29 27 22 23 29 32 31 32 35 33 28 26 27 28 30 31 30 31 32 31 31 30 29 26 25 24 24 25 25 25 25 24 25 26 26 25 25 26 26 26 25 25 25 24 24 26 27 27 27 27 28 29 29 28 28 30 30 30 31 32 32 32 33 34 33 29
29 29 34 34 32 30 29 30 27 28 34 31 25 30 31 28 31 34 32 30 29 27 25 26 30 31 30 31 33 32 27 24 24 25 28 30 31 31 32 32 31 30 27 25 24 25 26 26 26 26 26 26 26 27 26 26 26 26 26 25 25 25 25 24 25 26 27 27 27 28 28 29 29 28 28 30 31 30 30 31 31 31 32 33 32 30
32 32 34 35 33 30 26 23 21 22 29 31 28 30 29 27 32 33 31 33 31 25 25 28 29 29 31 34 32 28 25 26 26 26 29 32 32 32 32 32 31 29 27 25 26 26 27 28 27 27 27 28 28 27 27 26 26 25 25 25 25 25 25 25 27 27 27 28 28 28 28 28 29 28 28 30 31 31 30 30 31 31 31 32 31 30
36 35 34 34 31 27 22 21 22 22 26 30 30 29 26 26 32 32 29 33 31 26 27 30 29 29 30 31 29 24 22 23 25 26 29 32 32 33 33 32 31 28 27 26 27 28 29 29 29 29 29 28 28 27 27 26 25 25 25 25 25 26 26 27 28 28 28 28 28 28 29 29 29 29 29 30 31 31 30 30 30 31 31 31 31 31
36 36 36 35 33 30 28 27 28 26 25 27 28 28 27 27 32 35 32 31 29 28 30 30 30 32 32 29 28 25 22 22 25 26 28 30 32 33 32 31 29 28 27 28 28 29 30 30 30 30 30 29 28 27 27 26 25 25 25 26 26 26 27 28 28 29 29 29 29 29 29 29 29 29 29 29 30 32 32 31 30 30 30 31 31 31
32 36 39 38 34 32 32 31 30 28 28 27 27 29 30 28 28 33 35 32 31 32 35 34 33 34 35 34 30 25 21 21 24 26 26 27 29 30 30 29 28 28 28 29 30 30 31 31 31 31 30 29 28 28 27 26 26 25 26 26 27 27 28 29 29 29 29 29 29 29 29 30 30 30 30 30 30 32 32 32 31 30 30 30 31 30
32 34 37 38 36 33 32 33 31 29 31 30 26 28 31 28 26 30 34 35 36 36 37 38 37 34 33 34 31 27 22 19 21 23 25 26 27 28 28 28 28 29 29 30 30 31 32 32 31 31 30 28 28 28 27 26 26 26 26 27 28 28 29 30 30 29 29 29 29 29 30 30 30 30 30 30 30 31 32 32 32 31 30 29 30 30
34 34 34 37 37 34 33 34 31 30 32 31 26 27 31 30 30 34 37 37 38 37 36 35 36 34 29 25 25 26 24 21 21 23 24 25 26 26 27 28 28 29 30 30 31 32 32 31 31 30 29 28 28 27 26 26 27 27 27 28 28 29 30 30 30 29 29 29 30 30 31 31 31 30 30 31 30 31 32 32 32 32 30 29 29 30
35 36 36 36 35 33 34 35 32 31 34 34 31 33 36 37 38 38 39 40 40 41 40 37 34 32 27 21 19 22 24 24 24 24 24 24 25 25 27 28 29 31 31 31 32 32 31 30 29 29 28 27 27 26 26 27 27 27 28 28 29 30 30 30 30 29 29 30 30 31 31 31 31 31 31 32 31 31 31 31 32 32 31 30 28 28
38 36 35 34 34 36 36 35 33 34 36 36 36 38 40 42 42 42 42 43 43 44 44 39 34 30 27 23 19 22 25 25 25 26 26 26 26 26 27 28 30 31 31 31 32 31 30 29 28 27 27 26 26 26 26 27 27 27 28 29 29 30 30 30 30 30 30 30 30 31 30 30 31 32 32 33 33 32 32 31 31 31 31 31 29 28
38 35 34 34 35 37 37 34 35 37 37 37 37 38 42 43 41 42 43 43 42 43 42 39 33 28 27 24 21 21 23 23 24 25 26 26 26 25 26 27 29 30 30 30 30 29 28 27 26 26 25 25 25 25 26 26 27 27 28 28 29 29 30 30 30 30 30 30 30 30 30 31 31 32 33 34 34 34 33 32 31 30 30 30 30 29
35 35 35 36 36 36 35 35 37 37 36 35 33 35 41 42 38 38 42 43 41 39 39 37 31 24 24 23 21 19 20 21 22 23 23 24 24 24 26 27 28 28 29 29 28 27 27 26 25 25 25 25 25 25 25 26 26 27 27 27 28 28 28 29 29 29 29 30 30 30 31 31 32 32 33 34 34 34 34 33 31 30 30 29 29 29
34 34 35 36 35 34 33 34 35 34 33 34 32 31 35 39 36 35 38 40 39 35 35 36 30 21 18 18 18 18 19 19 20 22 22 23 24 24 25 26 26 27 27 27 26 26 26 25 25 25 25 25 25 25 25 26 26 27 27 27 28 28 28 28 28 29 29 29 30 30 31 31 32 33 34 34 35 35 35 34 32 31 30 30 29 29
34 33 34 35 33 30 30 31 31 31 30 33 33 29 29 33 34 32 31 32 33 30 30 31 28 21 17 16 16 17 19 20 21 21 21 22 23 24 24 25 25 25 25 26 26 25 26 26 26 27 27 27 26 26 26 27 27 27 28 28 29 29 29 29 29 30 30 30 30 31 31 32 33 34 34 35 35 35 35 34 33 32 32 31 30 29
33 33 35 34 29 27 27 27 27 28 28 31 32 31 30 30 31 29 27 26 26 25 25 24 22 19 18 17 17 18 20 20 19 19 20 21 22 23 24 24 25 25 25 26 26 26 26 26 27 28 28 28 28 28 28 28 28 27 28 28 29 30 30 31 31 32 32 32 32 33 33 34 35 35 36 36 36 36 36 35 34 34 34 33 32 30
32 33 34 32 28 26 25 23 24 26 26 28 29 30 30 29 28 28 28 27 25 24 23 22 21 20 20 20 20 20 19 17 17 19 21 22 22 23 24 24 25 25 26 26 26 27 27 27 28 29 29 30 30 29 30 29 29 29 29 29 29 29 30 31 31 32 33 33 34 35 36 36 37 37 36 36 36 36 36 36 36 36 35 34 33 31
30 33 32 30 27 26 23 21 22 24 25 25 27 27 27 26 27 28 28 26 24 23 23 22 21 21 22 22 20 18 17 18 20 21 22 23 23 24 24 25 25 26 26 27 27 28 28 29 29 30 30 30 30 30 30 30 30 30 30 30 29 29 29 30 30 31 31 32 33 34 35 36 37 37 37 37 37 37 37 37 37 36 35 35 34 32
29 31 30 27 26 26 24 22 21 21 21 22 25 27 26 26 28 28 26 24 23 24 23 22 22 23 23 21 19 18 19 21 22 22 22 22 23 24 25 26 27 28 28 28 28 29 29 30 30 30 30 30 29 29 30 30 30 30 31 31 31 30 30 30 30 30 31 32 33 34 34 35 36 36 37 37 38 38 37 37 37 37 36 36 35 34
25 27 27 25 24 24 25 24 22 20 19 20 23 26 27 28 28 27 24 23 23 24 24 24 24 24 23 21 19 20 21 23 24 24 24 23 23 24 26 28 29 29 29 29 29 28 29 29 29 29 29 29 30 30 30 30 30 30 31 32 32 32 32 32 32 32 33 33 34 34 34 35 35 36 36 37 37 38 38 38 38 38 38 38 38 37
22 22 23 23 23 23 23 22 21 20 21 22 24 25 26 26 25 23 22 23 24 24 25 25 24 23 23 22 22 23 24 24 25 25 26 26 26 25 24 27 30 30 29 29 29 28 28 29 29 30 31 32 32 32 32 32 31 32 32 33 33 34 34 35 35 35 36 36 36 35 35 36 36 37 37 38 38 39 39 40 40 40 40 40 40 39
21 20 17 16 19 20 20 19 18 19 20 22 23 24 24 23 22 21 22 23 24 24 24 24 23 23 23 24 24 24 24 24 25 26 27 28 28 26 24 24 27 29 29 29 29 29 30 30 31 31 31 32 33 34 34 34 34 34 34 34 35 35 36 36 36 36 36 36 36 36 37 37 37 38 38 39 39 39 39 40 40 40 40 40 40 39
21 21 16 13 15 18 17 16 16 16 17 19 20 23 24 24 24 23 24 24 25 24 24 24 24 24 24 24 24 24 25 25 25 25 26 26 27 27 26 25 25 27 28 29 30 31 31 30 30 30 31 32 33 34 35 35 35 35 35 35 36 35 35 35 35 35 35 34 35 35 36 37 37 38 38 38 38 38 38 38 38 38 38 38 38 38
17 19 18 16 16 17 17 15 14 14 15 16 17 19 21 22 22 23 24 24 24 25 25 25 25 25 25 25 26 26 26 26 25 26 26 27 27 27 27 27 27 28 30 31 32 32 30 29 30 31 31 32 32 33 33 34 34 35 35 34 34 34 33 33 33 33 33 34 34 34 35 35 35 35 35 35 35 35 35 35 35 35 36 36 37 37
17 18 18 18 18 18 17 17 17 17 17 16 16 17 18 19 20 21 22 23 24 25 25 26 26 26 26 26 26 26 26 26 26 26 26 27 28 28 28 28 28 29 30 31 30 29 29 30 31 31 31 31 31 31 31 32 32 33 33 32 32 32 31 31 31 31 32 32 32 32 32 32 32 32 32 33 33 33 34 34 34 35 35 35 36 36
19 20 20 21 21 21 21 20 20 20 20 19 18 17 18 19 20 21 22 22 23 24 25 25 25 25 25 24 24 24 24 25 25 25 25 26 27 27 27 28 28 28 29 29 27 27 29 30 30 30 30 30 30 30 30 30 30 31 30 30 30 29 29 29 29 29 29 29 29 29 29 30 30 30 31 31 32 32 33 34 34 34 35 35 36 36
21 22 23 24 25 25 25 25 25 24 23 22 20 20 20 21 22 22 22 23 23 23 24 24 25 25 25 25 24 24 25 25 25 25 25 26 27 27 26 27 27 28 28 28 27 27 28 28 28 29 29 28 28 28 27 27 28 28 27 27 27 26 27 27 27 27 27 27 27 28 28 28 29 30 30 31 31 32 33 33 34 35 35 35 36 36
22 22 23 24 26 26 26 26 26 26 25 24 23 23 24 24 24 24 24 24 24 24 25 25 26 26 26 27 27 27 27 27 26 26 27 27 28 28 28 28 29 29 28 28 27 27 27 27 27 27 27 26 25 25 25 25 25 25 25 25 25 25 25 26 25 25 25 26 26 26 27 28 28 29 30 30 31 31 31 32 32 32 32 33 33 33
Wind_Direction
218 219 221 223 224 222 222 220 217 216 217 219 225 230 224 228 229 196 228 256 247 247 232 167 168 170 168 212 227 238 244 238 235 231 231 239 239 240 244 247 250 255 253 242 234 235 237 235 234 235 237 241 247 252 257 262 268 272 276 279 282 285 287 289 292 293 295 295 297 300 302 305 306 306 306 306 307 307 307 307 307 307 306 303 302 301
219 221 222 222 222 222 223 221 217 215 215 210 212 234 225 210 215 192 219 261 259 244 220 169 169 170 175 221 230 227 234 235 235 233 231 236 238 240 242 246 254 254 243 235 237 239 238 239 240 241 242 245 249 254 257 261 268 272 276 279 281 284 287 289 291 292 293 295 298 301 303 304 304 303 303 304 305 306 306 307 307 308 308 307 306 305
220 222 221 221 221 221 222 222 218 215 217 210 196 223 228 200 201 192 197 248 261 245 218 180 178 177 190 223 230 226 225 235 239 237 235 237 240 241 242 245 250 244 234 235 239 240 244 254 257 254 252 252 253 255 260 262 267 272 274 278 281 284 286 288 289 291 293 297 300 302 303 304 303 302 302 303 305 306 307 308 308 309 309 309 309 309
222 222 220 220 220 221 222 221 219 214 218 216 199 202 215 202 203 193 186 227 253 240 210 193 191 181 199 230 238 242 239 238 242 238 238 239 238 240 241 242 243 241 243 248 243 241 253 262 262 258 255 253 253 255 261 264 268 272 275 279 282 284 285 287 289 291 295 298 300 302 302 302 302 302 303 305 306 308 309 310 310 311 310 311 311 311
223 222 221 221 220 222 222 219 217 215 218 219 210 204 200 200 205 191 192 211 224 218 191 192 196 179 202 231 238 246 243 235 236 232 236 241 237 237 239 240 242 242 247 251 245 244 250 251 249 248 248 247 251 256 261 267 271 274 278 279 281 283 285 287 289 291 295 296 299 301 301 301 301 301 303 305 308 310 311 311 312 312 312 312 312 312
222 221 220 221 220 221 222 221 217 216 220 219 218 214 195 189 202 194 208 213 212 223 206 194 196 185 206 229 231 238 239 234 235 233 237 240 237 238 240 242 246 247 249 253 253 252 251 247 241 240 243 247 256 265 267 273 276 276 279 278 280 283 283 285 288 290 293 295 299 300 300 300 300 302 305 307 310 312 312 312 311 312 312 311 311 310
222 222 219 219 220 220 219 221 217 216 221 219 219 220 202 185 187 201 224 227 226 238 230 204 199 196 213 227 227 232 241 241 235 233 238 240 239 241 242 243 248 248 247 252 258 262 261 254 249 253 257 261 265 272 274 277 278 277 278 279 280 281 282 285 287 289 293 296 300 300 300 301 301 305 307 309 312 313 313 312 312 311 310 308 308 307
221 222 221 218 219 220 219 219 219 216 219 222 216 215 214 197 173 194 234 240 236 239 237 213 199 203 223 236 238 239 243 242 236 233 234 239 242 243 245 243 246 249 248 248 252 258 256 248 252 260 264 267 268 272 276 277 278 278 279 280 280 281 282 285 287 291 296 300 301 302 303 303 304 308 310 312 314 314 313 312 311 311 309 307 306 304
221 222 223 221 219 221 220 217 219 218 217 221 216 209 218 208 176 183 228 244 242 235 232 217 198 199 223 245 251 245 243 238 239 239 234 240 245 245 247 244 244 250 249 244 244 246 245 242 247 255 260 266 268 272 275 277 278 278 278 279 280 281 283 284 286 292 297 302 303 304 305 305 308 310 312 313 312 312 312 311 311 310 309 307 305 302
223 223 224 225 222 221 223 219 217 221 218 214 213 208 210 208 190 182 208 232 237 225 221 215 204 200 213 239 244 240 241 238 238 240 237 242 246 245 244 240 237 239 237 239 241 239 239 239 242 248 255 263 268 272 275 276 277 279 279 280 280 282 283 284 288 294 299 302 304 304 305 307 310 312 311 312 312 312 312 312 312 310 310 308 303 299
223 227 223 222 223 218 219 221 217 221 220 208 206 207 206 205 197 186 195 217 224 221 216 208 208 209 206 219 233 237 241 241 239 240 241 243 243 242 241 234 229 226 227 236 240 235 235 234 236 242 251 260 268 273 275 277 278 280 280 280 281 282 284 286 291 297 301 303 303 304 306 308 311 312 313 314 313 314 313 313 312 310 310 307 304 302
212 224 222 219 224 217 213 219 219 220 220 208 202 202 209 209 199 190 192 212 220 225 221 203 206 219 211 206 226 244 246 245 243 239 238 241 240 240 241 238 234 231 231 237 236 234 233 230 234 243 253 261 268 272 275 277 278 279 279 279 280 282 284 288 293 298 302 304 304 305 307 310 314 315 315 316 316 316 314 312 310 308 306 305 303 303
207 214 222 221 224 222 216 216 219 220 215 206 202 195 203 212 203 196 195 208 216 219 217 203 201 220 220 205 215 237 245 244 243 238 235 237 239 239 240 243 248 247 243 240 234 234 235 232 238 247 256 262 265 268 272 275 276 277 277 277 279 280 282 287 293 298 301 303 304 306 310 313 316 316 316 317 318 316 314 311 309 306 304 302 301 301
209 210 216 217 216 219 219 214 215 221 213 203 202 194 192 207 207 203 199 204 212 208 206 204 203 216 222 214 214 224 234 238 241 241 239 235 235 236 237 242 250 250 246 241 235 236 238 239 245 252 258 261 264 268 271 274 275 275 274 275 277 278 281 286 292 297 300 302 304 308 312 313 314 314 315 317 317 315 314 312 309 306 304 302 300 299
212 211 209 213 215 217 220 213 210 218 214 203 201 195 194 205 210 207 202 203 212 209 198 198 209 219 223 224 221 221 226 234 241 245 244 240 237 238 238 242 247 245 242 238 234 238 241 243 250 255 258 260 264 269 272 274 274 272 271 273 275 276 281 287 292 297 299 302 306 309 311 311 312 314 316 317 316 316 316 313 312 310 308 306 304 301
215 217 212 217 224 223 224 215 203 209 215 206 198 197 204 205 208 213 207 204 213 211 193 190 207 219 223 229 230 227 227 231 239 242 241 238 237 237 239 242 243 240 235 232 232 237 240 245 253 256 259 262 266 269 272 274 271 269 270 271 273 277 282 288 292 296 300 304 307 308 309 311 313 315 317 316 317 318 318 317 315 314 312 310 308 306
214 218 216 221 229 228 224 216 203 199 208 208 200 199 209 206 199 214 216 209 211 212 201 198 209 216 221 228 231 233 232 232 236 237 235 235 233 232 235 238 239 235 231 229 230 235 239 246 253 257 261 264 267 270 272 273 271 270 270 270 273 278 283 288 292 297 301 304 307 308 311 314 315 317 317 316 317 319 320 318 316 315 313 311 309 306
212 210 210 212 217 222 220 212 204 199 201 210 205 200 204 209 200 206 219 213 209 211 207 208 216 218 222 228 231 234 235 234 236 235 235 237 233 228 230 233 234 232 229 228 228 233 240 248 253 257 262 265 269 273 273 274 272 270 269 270 274 279 283 288 292 297 301 304 307 310 313 315 315 316 316 316 318 320 320 317 315 315 314 312 310 306
210 198 203 209 208 216 216 199 194 201 203 206 210 202 195 203 204 203 212 215 212 212 209 213 224 226 228 233 235 237 238 239 240 239 239 239 235 231 229 229 230 229 227 227 228 232 240 248 252 256 263 269 272 274 275 274 271 268 269 272 275 279 282 286 291 297 301 304 307 311 313 314 314 315 315 316 320 321 320 317 316 316 316 316 315 311
201 188 198 220 215 209 210 195 190 200 201 190 202 207 199 201 204 203 209 214 214 214 211 215 227 232 235 240 239 239 240 242 243 244 243 240 236 233 229 227 227 226 224 226 228 234 242 248 251 257 264 271 273 274 274 272 270 269 271 273 276 278 282 287 292 297 300 304 308 311 312 313 313 314 316 318 321 323 321 319 319 321 323 324 322 315
195 184 191 213 210 201 212 211 202 203 201 190 194 206 206 204 200 202 211 215 214 216 214 217 227 232 235 239 238 238 240 240 239 240 241 238 234 231 226 223 223 222 223 226 229 235 243 248 252 259 265 270 272 273 274 273 271 271 272 273 275 278 282 287 292 296 300 304 307 310 311 311 312 315 317 319 322 323 322 322 324 327 330 330 328 320
197 185 184 190 199 203 214 221 210 204 203 203 203 201 203 203 195 198 212 215 213 217 217 217 226 235 237 236 236 237 237 236 234 234 233 231 230 229 225 221 221 222 224 227 231 236 243 250 255 261 264 268 272 273 274 275 273 272 272 273 275 278 282 287 290 294 299 303 305 307 308 309 312 316 317 319 322 323 322 325 329 331 334 336 334 327
197 187 186 189 200 209 214 220 213 207 205 211 214 206 200 202 198 195 203 212 216 217 217 217 225 235 239 238 240 239 236 234 232 231 228 225 227 228 225 221 220 222 225 228 233 238 245 252 258 261 264 267 270 273 275 275 273 272 271 273 275 278 281 284 288 293 297 301 303 304 306 309 313 316 317 318 322 324 324 327 331 334 338 341 340 334
197 191 191 194 199 202 206 214 215 209 200 202 215 212 201 205 209 203 199 208 216 214 213 221 226 232 236 237 241 243 239 234 230 227 224 222 224 224 221 220 220 223 227 231 236 241 247 255 259 261 263 267 270 272 273 273 271 270 270 271 273 276 279 282 287 292 295 298 299 302 305 308 312 315 316 318 322 326 327 329 333 336 339 343 343 340
201 197 196 196 195 192 191 199 209 208 194 192 209 213 201 201 213 219 213 208 213 213 209 218 226 231 234 236 240 242 239 232 227 224 221 218 218 219 218 218 221 225 230 235 240 246 251 257 260 261 263 267 269 270 270 271 269 268 268 269 271 273 277 282 286 290 292 294 297 300 304 307 310 312 314 316 321 327 329 331 334 336 339 342 344 343
207 203 202 201 201 202 198 195 202 205 195 191 205 211 209 206 205 213 216 209 212 217 212 216 224 227 230 236 240 240 236 233 231 225 219 214 213 214 215 218 223 228 233 238 243 248 253 257 259 261 264 267 268 268 269 268 267 266 265 266 269 272 276 281 284 286 288 291 295 299 302 304 307 309 313 315 320 325 329 331 334 336 338 340 341 343
209 206 205 205 206 210 209 200 198 203 203 202 203 207 215 212 196 202 216 213 212 218 218 220 224 224 229 236 242 246 241 237 233 223 215 211 209 211 214 219 225 230 235 239 244 248 253 257 259 261 264 267 267 267 267 266 264 264 264 266 268 272 275 279 281 283 286 289 293 297 299 302 304 307 311 314 317 322 326 330 332 335 337 338 339 341
204 202 202 203 203 204 204 199 195 200 210 211 205 204 215 212 194 195 215 217 212 217 223 225 224 225 230 235 240 245 243 234 229 220 211 208 209 212 216 221 226 231 235 240 244 249 253 257 258 260 263 265 266 266 264 263 263 263 264 265 268 271 274 276 278 281 285 288 291 294 296 300 302 304 309 313 315 319 323 327 329 332 334 336 338 339
201 198 198 200 202 200 201 200 197 199 206 210 211 207 210 216 204 196 206 217 216 219 225 227 227 229 232 235 235 236 236 230 224 220 213 209 210 214 219 223 227 231 235 240 245 250 253 256 257 260 263 264 264 264 261 260 261 262 263 264 266 270 272 274 277 280 283 286 289 292 294 298 300 302 306 311 313 316 320 324 326 328 331 333 335 338
201 200 201 202 204 204 203 202 201 200 196 199 211 211 203 210 212 201 203 212 216 222 228 229 230 232 234 234 231 226 224 218 213 212 210 207 209 214 219 223 227 231 236 241 246 250 252 255 257 259 262 262 261 260 258 258 259 260 261 263 265 268 271 274 277 279 282 285 287 290 293 296 298 300 304 308 312 315 317 320 322 324 327 330 331 334
205 206 206 206 207 208 207 206 205 203 198 195 204 209 203 203 209 208 208 211 213 219 225 226 229 232 233 234 231 222 216 211 208 209 209 208 211 215 219 223 227 232 237 242 246 249 251 254 257 259 260 260 258 256 255 256 257 258 260 262 264 266 269 272 275 277 281 284 286 289 292 294 297 299 302 306 310 313 315 317 320 322 324 327 327 329
209 211 212 209 208 209 209 211 209 204 203 201 197 201 204 201 201 208 214 214 213 218 220 221 224 226 228 234 232 223 218 217 215 213 212 212 214 216 220 224 228 233 237 241 245 249 251 254 256 257 258 257 255 254 254 255 256 258 260 261 263 266 269 272 274 276 280 283 285 288 290 293 295 297 300 304 308 311 313 315 317 319 321 323 324 325
209 212 213 211 211 210 210 211 210 204 205 205 199 198 202 200 198 203 210 212 213 216 219 219 219 221 227 234 228 215 212 215 216 215 215 217 219 221 225 227 230 233 237 240 244 247 250 252 254 254 255 255 255 255 256 257 258 259 260 261 263 266 268 270 273 276 279 282 284 287 289 291 293 295 299 303 306 308 311 313 315 316 318 320 321 321
210 211 211 209 210 213 213 211 210 208 207 207 203 200 201 202 200 200 206 211 213 214 217 219 220 223 229 231 219 205 205 211 215 218 220 221 223 225 227 229 231 234 236 239 242 246 248 249 251 252 253 255 257 257 258 259 260 261 262 263 265 266 268 270 273 276 279 281 283 285 287 288 291 294 298 301 304 307 309 311 313 314 315 316 318 319
213 213 212 210 211 214 214 213 212 213 210 208 207 206 204 204 204 204 207 211 213 214 216 218 220 224 226 221 210 201 202 208 213 218 221 222 223 225 226 228 230 232 235 237 240 243 245 247 250 252 255 257 259 260 261 262 263 263 263 265 267 268 269 271 274 276 278 280 281 282 284 286 289 293 297 300 303 306 309 310 311 312 313 313 315 316
214 215 214 212 213 214 216 217 215 214 212 209 210 211 209 207 207 208 209 210 212 215 217 216 216 220 219 211 203 200 203 207 211 215 217 218 220 223 225 227 229 232 234 236 238 241 243 246 250 254 256 258 260 261 262 263 264 265 266 268 269 271 272 273 274 276 277 278 279 280 282 285 288 292 296 299 303 305 308 310 311 312 312 312 313 313
211 214 212 210 211 214 218 218 215 214 215 215 213 210 209 209 209 210 210 210 212 214 213 211 211 210 206 202 202 205 208 210 212 214 214 214 215 219 223 226 229 231 232 234 236 240 243 247 250 253 256 258 259 261 263 264 266 267 268 269 271 272 273 273 274 275 275 276 277 279 281 284 287 291 294 298 301 304 306 308 310 311 311 311 312 312
207 210 208 208 211 214 214 211 211 215 216 216 216 212 206 207 209 210 210 210 210 209 207 207 208 208 208 210 213 214 216 216 216 216 217 216 217 219 222 225 228 229 230 233 236 241 245 248 250 253 256 258 260 262 264 266 267 268 269 270 271 271 272 272 273 273 274 275 276 279 281 284 287 290 293 297 300 302 304 306 308 310 310 310 310 311
204 203 205 208 210 209 206 204 211 216 212 210 213 211 206 204 204 205 205 203 203 206 207 208 212 215 219 222 223 222 222 221 221 221 223 224 224 226 227 227 228 230 232 235 239 243 246 250 253 255 257 259 262 264 266 268 269 270 271 271 272 273 273 273 274 274 274 275 277 279 281 284 287 290 292 295 298 300 301 302 305 307 308 308 308 308
200 200 204 207 205 201 203 208 213 213 208 207 206 204 204 204 201 201 202 201 201 205 209 214 217 219 222 224 226 227 228 227 226 226 227 227 227 228 229 230 231 233 236 240 243 246 250 253 256 259 260 262 264 266 268 269 270 270 271 272 273 275 276 277 277 278 277 278 279 280 282 284 286 288 291 294 296 297 298 298 301 303 304 304 304 304
197 199 202 204 203 202 205 208 209 208 208 207 202 199 199 200 202 205 206 204 205 209 212 216 219 221 223 224 226 229 231 232 230 228 228 227 226 227 229 231 234 236 239 242 246 250 254 257 259 262 263 264 266 267 268 269 270 270 271 272 273 275 278 280 281 282 283 283 282 283 283 284 286 288 290 292 294 294 294 295 297 300 301 301 302 302
195 197 199 202 205 209 212 211 208 207 208 205 201 200 199 199 204 210 208 205 208 213 215 218 223 226 227 226 227 231 234 235 233 230 228 228 228 229 230 232 234 237 240 243 247 250 254 257 260 262 264 265 265 266 267 268 269 271 271 272 273 275 278 282 284 286 287 287 287 286 285 286 287 288 290 291 292 293 293 294 296 298 299 300 301 301
196 198 200 203 205 206 210 214 213 209 205 201 198 201 205 207 211 213 211 210 213 217 220 222 225 227 227 227 230 234 235 235 233 230 228 230 232 235 236 235 235 238 241 244 247 250 253 256 259 261 263 264 264 265 266 268 269 271 271 272 273 275 277 280 283 286 288 288 288 288 288 288 288 289 290 291 292 293 294 295 296 297 298 299 300 301
192 193 196 202 206 207 209 214 215 212 211 209 205 206 209 212 215 216 215 216 218 220 223 224 224 225 227 229 232 235 236 236 235 233 233 235 238 243 246 242 237 237 241 244 246 249 251 255 259 262 264 265 265 266 267 268 269 270 271 273 273 274 276 278 281 285 287 288 288 288 289 289 290 291 292 292 293 294 295 296 296 297 297 298 299 299
190 187 187 191 199 204 207 211 212 213 214 215 214 214 214 215 216 215 214 216 217 219 223 225 226 227 230 232 234 235 237 238 239 239 239 240 242 246 250 246 240 238 241 244 246 249 253 257 261 264 265 266 267 267 268 268 270 271 272 273 274 275 276 278 281 284 287 287 288 288 289 290 291 292 293 294 295 295 296 296 296 296 297 297 298 298
193 194 194 190 191 197 203 205 206 208 210 210 210 212 214 215 216 215 216 218 220 222 225 228 229 231 232 233 233 235 237 240 242 243 243 244 245 246 248 249 246 244 244 247 249 252 255 257 261 264 267 269 270 270 270 270 271 272 273 275 276 278 279 280 283 285 287 288 290 290 291 292 292 293 294 295 295 296 296 296 296 296 296 297 297 298
201 204 207 208 207 208 209 208 209 211 210 207 208 210 212 214 216 218 221 222 224 227 229 231 232 233 234 235 236 237 239 241 243 244 244 245 246 247 249 249 249 249 250 250 250 251 252 255 260 265 269 272 273 274 273 272 271 272 274 276 278 280 282 283 286 288 289 291 292 293 294 294 294 295 296 296 296 296 296 296 296 297 297 297 297 298
214 214 215 218 220 220 219 217 220 224 225 222 220 218 217 218 219 221 223 225 226 228 230 232 234 235 236 237 238 239 240 240 242 243 243 244 246 247 248 248 248 249 252 251 250 250 253 257 263 267 270 272 274 275 274 273 272 273 275 278 280 282 284 287 288 290 292 293 294 294 295 295 294 294 295 295 295 295 295 296 296 296 296 296 296 296
220 221 222 224 225 227 228 226 226 228 229 228 227 224 222 222 223 224 224 226 227 228 230 232 234 234 235 236 236 235 235 236 237 239 241 244 247 247 246 247 247 248 252 254 255 256 259 263 266 269 271 273 274 274 274 274 274 275 278 281 283 285 287 289 290 291 292 292 292 293 293 293 293 293 293 294 294 294 295 295 295 295 295 295 295 294
224 225 226 227 228 230 230 231 231 231 231 230 231 230 229 229 229 228 228 228 228 228 229 231 232 233 233 234 233 233 233 234 235 237 239 243 246 246 245 247 248 251 255 260 261 262 264 267 269 271 273 274 275 275 275 276 277 280 283 285 286 287 288 288 289 289 290 290 291 292 292 293 294 294 294 295 295 295 295 296 295 296 295 295 295 295
229 229 229 230 232 232 233 234 235 235 235 235 234 233 233 233 233 232 231 231 231 231 232 233 234 235 235 236 235 235 236 236 236 237 239 242 245 246 248 252 254 257 260 263 265 265 266 268 270 272 274 276 277 277 278 279 281 283 285 285 286 286 287 287 289 290 290 291 292 293 294 294 295 296 297 297 297 297 298 299 299 300 300 301 301 301
Height
5736 5737 5739 5742 5746 5750 5752 5755 5759 5763 5765 5768 5771 5773 5776 5778 5781 5785 5784 5780 5784 5790 5792 5796 5798 5799 5801 5802 5799 5798 5801 5804 5804 5806 5807 5809 5811 5810 5810 5811 5812 5814 5816 5816 5817 5818 5820 5822 5823 5823 5824 5825 5826 5827 5828 5829 5830 5830 5831 5832 5832 5832 5832 5832 5831 5830 5829 5829 5828 5827 5827 5826 5825 5824 5822 5820 5820 5819 5817 5816 5815 5814 5814 5813 5812 5811
5731 5733 5737 5741 5745 5748 5751 5754 5757 5760 5762 5766 5770 5772 5774 5777 5780 5785 5785 5779 5782 5788 5791 5795 5796 5798 5801 5800 5798 5798 5800 5801 5802 5805 5806 5807 5808 5807 5808 5810 5811 5812 5814 5816 5816 5818 5819 5821 5822 5822 5823 5824 5825 5825 5826 5827 5828 5828 5829 5830 5830 5831 5831 5830 5829 5829 5828 5827 5827 5826 5826 5825 5824 5823 5821 5820 5818 5817 5816 5815 5814 5813 5812 5811 5810 5809
5727 5730 5735 5739 5742 5746 5748 5751 5755 5758 5760 5762 5767 5771 5773 5776 5779 5784 5786 5781 5780 5784 5789 5793 5794 5797 5801 5799 5796 5797 5799 5799 5801 5804 5804 5804 5805 5805 5807 5809 5809 5810 5812 5815 5817 5817 5818 5819 5820 5821 5821 5822 5823 5824 5825 5825 5826 5827 5827 5828 5828 5829 5829 5828 5828 5827 5826 5825 5825 5824 5823 5822 5821 5820 5820 5818 5817 5816 5814 5813 5812 5811 5810 5809 5808 5807
5725 5729 5733 5737 5740 5743 5745 5749 5753 5756 5757 5758 5762 5766 5770 5774 5777 5781 5786 5784 5780 5781 5787 5791 5793 5797 5800 5797 5794 5795 5797 5797 5799 5801 5801 5801 5802 5803 5805 5806 5807 5808 5810 5811 5813 5814 5815 5816 5817 5818 5819 5821 5822 5823 5823 5823 5824 5825 5825 5826 5826 5827 5826 5826 5826 5825 5824 5823 5823 5822 5821 5820 5819 5818 5817 5816 5815 5813 5812 5811 5809 5808 5807 5806 5805 5804
5723 5727 5731 5734 5737 5740 5743 5746 5750 5752 5754 5756 5759 5763 5767 5773 5776 5780 5785 5785 5780 5779 5784 5789 5791 5795 5797 5794 5791 5791 5794 5796 5798 5799 5798 5797 5800 5800 5802 5803 5803 5806 5807 5807 5807 5809 5812 5814 5816 5817 5818 5820 5820 5821 5821 5822 5822 5823 5823 5824 5824 5824 5824 5824 5823 5823 5822 5821 5820 5820 5819 5818 5817 5816 5814 5813 5812 5811 5809 5808 5807 5805 5804 5803 5802 5801
5719 5724 5728 5731 5734 5737 5740 5743 5747 5749 5751 5754 5757 5760 5766 5771 5776 5779 5780 5780 5779 5778 5781 5786 5789 5792 5792 5790 5790 5789 5791 5793 5795 5797 5795 5793 5795 5796 5799 5801 5801 5803 5804 5804 5805 5808 5811 5813 5815 5816 5817 5817 5818 5819 5819 5820 5820 5821 5821 5822 5822 5822 5822 5822 5821 5821 5820 5819 5818 5818 5817 5816 5815 5813 5812 5811 5809 5808 5807 5806 5804 5803 5801 5800 5799 5798
5716 5720 5724 5727 5730 5733 5736 5740 5743 5746 5748 5751 5755 5760 5764 5768 5775 5778 5775 5775 5777 5777 5780 5784 5786 5790 5789 5786 5788 5788 5788 5791 5793 5794 5792 5791 5793 5793 5796 5799 5800 5801 5803 5804 5806 5808 5810 5811 5812 5814 5814 5815 5815 5816 5817 5817 5818 5818 5819 5819 5819 5820 5819 5819 5819 5818 5817 5817 5816 5815 5815 5814 5812 5811 5809 5808 5807 5806 5804 5803 5802 5800 5799 5797 5796 5795
5712 5716 5719 5723 5726 5729 5732 5736 5740 5743 5745 5748 5754 5759 5761 5764 5771 5775 5772 5771 5775 5776 5778 5781 5783 5788 5787 5783 5786 5787 5785 5788 5790 5791 5791 5790 5791 5791 5793 5797 5798 5799 5801 5803 5805 5807 5807 5808 5810 5811 5811 5812 5813 5814 5815 5815 5815 5816 5816 5817 5817 5817 5817 5817 5816 5815 5815 5814 5813 5813 5812 5811 5810 5809 5807 5806 5804 5803 5802 5800 5799 5797 5796 5794 5793 5792
5709 5712 5715 5719 5723 5725 5729 5733 5737 5740 5742 5747 5752 5756 5759 5762 5766 5772 5772 5770 5772 5773 5774 5776 5779 5784 5784 5782 5784 5784 5782 5785 5787 5788 5788 5787 5788 5790 5792 5795 5797 5798 5798 5800 5803 5804 5806 5807 5809 5809 5809 5809 5810 5811 5812 5813 5813 5813 5814 5814 5814 5814 5814 5814 5814 5813 5812 5812 5811 5810 5809 5809 5808 5806 5805 5804 5802 5800 5799 5798 5796 5794 5792 5791 5789 5788
5706 5710 5713 5716 5718 5722 5726 5731 5735 5736 5739 5745 5750 5753 5757 5760 5761 5766 5770 5770 5769 5768 5769 5773 5776 5779 5783 5782 5780 5779 5779 5781 5784 5785 5784 5784 5786 5790 5791 5793 5795 5797 5797 5799 5801 5803 5805 5807 5808 5807 5807 5807 5808 5809 5810 5810 5810 5811 5811 5812 5812 5812 5811 5811 5811 5810 5810 5809 5809 5808 5807 5806 5805 5804 5803 5802 5800 5798 5796 5794 5792 5790 5789 5787 5785 5783
5704 5707 5710 5712 5714 5719 5724 5728 5731 5733 5737 5743 5747 5750 5753 5756 5758 5760 5765 5768 5766 5764 5766 5771 5774 5777 5780 5782 5780 5777 5777 5779 5781 5781 5780 5781 5784 5787 5789 5790 5793 5795 5797 5799 5800 5802 5804 5805 5805 5805 5805 5806 5806 5807 5808 5808 5808 5808 5809 5809 5809 5809 5809 5809 5808 5808 5807 5807 5806 5805 5805 5804 5803 5802 5800 5799 5797 5795 5793 5791 5789 5787 5785 5783 5780 5779
5702 5703 5704 5707 5709 5714 5720 5723 5727 5730 5735 5740 5743 5747 5750 5752 5756 5758 5760 5763 5761 5760 5764 5769 5774 5775 5776 5781 5782 5777 5775 5778 5778 5776 5777 5779 5781 5783 5785 5787 5790 5793 5795 5797 5798 5800 5801 5802 5802 5803 5803 5804 5805 5805 5805 5806 5806 5806 5807 5807 5807 5807 5806 5806 5806 5805 5805 5804 5804 5803 5802 5801 5800 5799 5797 5796 5794 5792 5790 5788 5786 5784 5781 5779 5776 5775
5698 5700 5701 5704 5706 5710 5715 5719 5724 5726 5731 5736 5739 5743 5747 5749 5751 5753 5754 5757 5757 5759 5763 5768 5772 5773 5773 5777 5778 5775 5774 5774 5770 5770 5776 5780 5780 5782 5783 5783 5786 5789 5791 5793 5795 5797 5798 5799 5800 5800 5801 5802 5802 5803 5803 5803 5804 5804 5804 5805 5805 5805 5804 5804 5803 5803 5802 5802 5801 5801 5800 5799 5797 5796 5794 5792 5790 5789 5787 5785 5783 5780 5778 5775 5772 5771
5693 5696 5698 5702 5704 5706 5710 5715 5719 5721 5726 5732 5734 5738 5743 5745 5745 5747 5750 5753 5755 5759 5764 5768 5771 5772 5770 5770 5769 5769 5769 5766 5764 5768 5777 5780 5780 5781 5782 5783 5784 5786 5788 5791 5792 5793 5795 5796 5797 5798 5799 5800 5800 5801 5801 5801 5802 5802 5802 5803 5803 5803 5802 5802 5801 5801 5800 5800 5799 5798 5797 5796 5795 5793 5791 5790 5788 5786 5784 5781 5779 5777 5775 5772 5769 5768
5688 5691 5695 5698 5699 5700 5705 5711 5716 5719 5725 5729 5732 5736 5740 5741 5742 5743 5747 5751 5754 5757 5762 5766 5768 5767 5764 5762 5762 5763 5763 5763 5764 5770 5776 5779 5780 5781 5782 5783 5784 5785 5787 5788 5790 5791 5792 5794 5795 5796 5797 5798 5798 5799 5799 5799 5800 5800 5800 5801 5801 5801 5800 5800 5799 5799 5798 5797 5796 5796 5795 5794 5792 5791 5789 5787 5785 5782 5780 5777 5775 5773 5771 5768 5765 5764
5685 5688 5693 5695 5695 5698 5703 5709 5713 5718 5723 5726 5730 5733 5735 5738 5742 5744 5746 5750 5753 5755 5757 5760 5762 5760 5757 5757 5758 5759 5760 5762 5765 5769 5773 5776 5778 5779 5780 5782 5783 5784 5786 5787 5788 5789 5791 5792 5793 5794 5795 5796 5796 5797 5797 5797 5798 5798 5798 5799 5799 5799 5798 5798 5797 5796 5796 5795 5794 5793 5792 5791 5790 5788 5786 5784 5781 5779 5776 5773 5771 5769 5767 5764 5761 5759
5683 5687 5692 5693 5694 5696 5701 5706 5710 5715 5720 5723 5725 5728 5732 5737 5742 5744 5745 5748 5750 5751 5752 5754 5754 5753 5753 5754 5754 5755 5757 5761 5764 5768 5771 5772 5774 5776 5778 5780 5781 5783 5784 5786 5787 5788 5789 5790 5791 5792 5793 5794 5794 5795 5795 5795 5796 5796 5796 5797 5797 5797 5796 5795 5795 5794 5793 5792 5792 5791 5789 5788 5786 5785 5783 5781 5778 5776 5773 5770 5767 5765 5763 5760 5757 5754
5682 5687 5690 5691 5692 5694 5697 5702 5708 5712 5717 5720 5721 5726 5734 5737 5739 5742 5743 5744 5745 5746 5748 5750 5749 5749 5750 5750 5750 5752 5755 5759 5763 5766 5768 5770 5772 5774 5776 5778 5779 5781 5783 5784 5786 5787 5787 5789 5790 5791 5791 5792 5792 5793 5793 5793 5794 5794 5795 5795 5795 5794 5794 5793 5792 5792 5791 5790 5789 5788 5787 5785 5784 5782 5780 5778 5775 5773 5770 5767 5764 5762 5759 5756 5752 5749
5680 5686 5689 5689 5690 5693 5695 5699 5705 5708 5712 5718 5721 5726 5730 5732 5734 5737 5739 5740 5741 5742 5746 5747 5746 5747 5748 5748 5749 5752 5754 5758 5761 5764 5766 5769 5771 5772 5774 5776 5777 5779 5781 5782 5784 5785 5786 5787 5788 5789 5789 5790 5790 5791 5791 5791 5791 5792 5792 5793 5792 5792 5791 5791 5790 5790 5789 5788 5787 5786 5784 5783 5781 5780 5777 5775 5773 5770 5768 5765 5762 5759 5756 5752 5747 5743
5677 5683 5687 5686 5688 5692 5693 5695 5700 5704 5707 5714 5720 5722 5724 5727 5730 5733 5735 5738 5739 5740 5743 5744 5743 5744 5745 5746 5748 5751 5753 5756 5759 5762 5764 5767 5769 5770 5772 5773 5775 5777 5779 5780 5782 5783 5785 5786 5786 5787 5787 5788 5788 5789 5789 5789 5789 5790 5790 5790 5790 5789 5789 5788 5788 5787 5786 5785 5784 5783 5782 5781 5779 5777 5775 5773 5770 5768 5765 5762 5759 5756 5751 5747 5742 5738
5674 5679 5683 5685 5686 5689 5689 5691 5696 5700 5704 5709 5714 5718 5720 5722 5726 5730 5733 5735 5737 5738 5740 5741 5741 5741 5741 5743 5746 5748 5750 5753 5756 5759 5761 5763 5765 5767 5768 5771 5773 5775 5777 5778 5780 5782 5783 5784 5784 5785 5785 5786 5786 5786 5786 5787 5787 5787 5788 5788 5788 5787 5787 5786 5786 5785 5784 5783 5781 5781 5780 5778 5777 5775 5772 5770 5768 5765 5763 5760 5756 5752 5748 5743 5739 5735
5672 5676 5679 5681 5683 5684 5686 5691 5695 5699 5703 5706 5709 5713 5716 5718 5722 5726 5729 5732 5735 5736 5737 5739 5740 5738 5737 5740 5742 5743 5745 5749 5752 5754 5757 5759 5761 5763 5766 5769 5770 5772 5774 5776 5778 5780 5781 5781 5782 5783 5783 5784 5784 5784 5784 5784 5785 5785 5785 5785 5785 5785 5784 5784 5783 5782 5781 5780 5779 5778 5777 5776 5774 5773 5770 5768 5766 5763 5761 5757 5754 5750 5746 5742 5737 5734
5670 5673 5675 5677 5679 5682 5686 5690 5693 5697 5702 5706 5707 5709 5714 5717 5718 5722 5726 5730 5732 5733 5735 5738 5738 5735 5735 5737 5739 5739 5741 5744 5747 5750 5753 5755 5758 5761 5764 5766 5768 5770 5772 5774 5776 5777 5778 5779 5780 5780 5781 5781 5781 5781 5782 5782 5782 5783 5783 5783 5783 5782 5782 5781 5781 5780 5779 5778 5777 5776 5775 5774 5772 5770 5768 5766 5764 5761 5758 5755 5752 5748 5745 5741 5737 5734
5667 5670 5673 5675 5678 5682 5686 5689 5691 5693 5697 5703 5705 5707 5711 5715 5717 5719 5724 5727 5729 5730 5733 5734 5733 5731 5732 5734 5735 5736 5738 5740 5744 5747 5749 5752 5755 5758 5761 5763 5765 5768 5770 5772 5774 5775 5776 5777 5777 5778 5778 5779 5779 5779 5779 5779 5780 5780 5780 5780 5780 5780 5779 5779 5778 5777 5776 5775 5774 5774 5772 5771 5769 5768 5766 5764 5762 5759 5756 5753 5750 5747 5744 5741 5738 5735
5664 5667 5670 5673 5675 5679 5682 5685 5687 5688 5691 5697 5702 5704 5707 5712 5717 5719 5721 5723 5725 5726 5729 5730 5729 5728 5729 5731 5732 5733 5736 5739 5742 5744 5747 5750 5753 5755 5758 5760 5763 5765 5768 5770 5771 5773 5774 5774 5775 5775 5776 5776 5776 5776 5776 5777 5777 5777 5778 5778 5778 5777 5777 5776 5775 5774 5773 5773 5772 5771 5770 5769 5767 5766 5764 5762 5760 5758 5755 5752 5749 5746 5744 5741 5738 5736
5663 5666 5667 5669 5672 5674 5676 5679 5682 5684 5688 5692 5698 5701 5703 5707 5713 5716 5717 5719 5720 5722 5725 5726 5725 5725 5727 5727 5728 5732 5736 5738 5740 5742 5744 5747 5749 5752 5756 5758 5761 5763 5765 5767 5769 5770 5771 5771 5772 5773 5773 5773 5773 5774 5774 5774 5774 5775 5775 5775 5775 5775 5774 5773 5772 5772 5771 5770 5769 5769 5767 5766 5765 5763 5762 5760 5758 5756 5754 5751 5748 5746 5744 5741 5739 5737
5660 5663 5666 5668 5671 5674 5678 5680 5683 5686 5689 5690 5694 5699 5701 5703 5708 5712 5715 5715 5717 5720 5722 5721 5721 5723 5723 5724 5726 5729 5733 5735 5736 5738 5741 5743 5747 5750 5753 5756 5759 5761 5763 5764 5766 5767 5768 5768 5769 5770 5770 5770 5770 5770 5771 5771 5771 5772 5772 5772 5772 5772 5771 5770 5770 5769 5768 5767 5767 5766 5765 5763 5762 5761 5760 5758 5756 5754 5752 5750 5748 5745 5744 5741 5739 5737
5656 5660 5664 5667 5670 5674 5678 5680 5681 5684 5686 5688 5692 5696 5700 5701 5704 5708 5711 5713 5715 5718 5718 5717 5719 5720 5721 5722 5724 5727 5729 5731 5733 5736 5738 5741 5745 5748 5751 5754 5756 5758 5760 5761 5763 5764 5765 5765 5766 5767 5767 5767 5767 5767 5768 5768 5768 5769 5769 5769 5769 5769 5768 5767 5767 5766 5766 5765 5764 5763 5762 5761 5760 5759 5758 5756 5754 5752 5751 5749 5747 5745 5743 5741 5738 5736
5654 5657 5661 5664 5666 5670 5673 5675 5678 5681 5684 5687 5691 5694 5697 5699 5701 5703 5707 5710 5714 5715 5714 5714 5717 5718 5719 5721 5723 5725 5726 5728 5731 5733 5735 5739 5742 5745 5748 5751 5754 5756 5757 5759 5760 5761 5761 5762 5763 5764 5764 5764 5764 5764 5764 5765 5765 5765 5766 5766 5766 5766 5765 5765 5764 5764 5763 5762 5761 5761 5759 5758 5757 5757 5756 5754 5752 5750 5748 5747 5745 5744 5742 5740 5738 5736
5653 5655 5658 5661 5663 5666 5669 5672 5675 5678 5681 5685 5688 5691 5694 5697 5699 5702 5704 5707 5710 5711 5711 5711 5713 5715 5716 5717 5720 5723 5725 5726 5728 5731 5733 5736 5739 5743 5746 5749 5751 5753 5754 5756 5757 5758 5758 5759 5760 5760 5761 5761 5761 5761 5761 5762 5762 5762 5762 5763 5763 5763 5762 5762 5762 5761 5760 5759 5758 5758 5757 5756 5755 5754 5753 5752 5750 5748 5746 5745 5744 5742 5741 5739 5737 5735
5652 5654 5656 5659 5662 5664 5667 5669 5672 5675 5678 5681 5684 5688 5691 5694 5698 5700 5701 5702 5704 5705 5706 5708 5710 5712 5713 5715 5718 5721 5724 5725 5727 5729 5732 5735 5737 5741 5743 5746 5748 5750 5751 5752 5753 5754 5755 5756 5757 5757 5757 5758 5758 5758 5759 5759 5759 5759 5759 5759 5759 5760 5760 5759 5759 5758 5757 5757 5756 5755 5754 5753 5753 5752 5751 5750 5748 5746 5744 5743 5741 5740 5739 5738 5736 5734
5650 5652 5655 5658 5660 5663 5666 5668 5670 5673 5675 5678 5680 5683 5686 5689 5692 5694 5695 5697 5699 5701 5702 5705 5707 5710 5712 5713 5715 5718 5721 5724 5726 5728 5730 5733 5735 5738 5740 5743 5745 5746 5748 5749 5750 5751 5752 5753 5753 5753 5754 5754 5754 5755 5756 5755 5755 5756 5756 5756 5756 5757 5757 5756 5756 5755 5755 5754 5753 5752 5751 5751 5750 5749 5749 5748 5746 5745 5743 5741 5739 5738 5737 5736 5735 5733
5648 5650 5653 5656 5659 5662 5663 5665 5668 5670 5672 5675 5676 5676 5679 5682 5684 5687 5690 5692 5695 5697 5699 5702 5705 5708 5710 5711 5713 5716 5719 5721 5724 5726 5728 5731 5733 5736 5738 5740 5742 5743 5744 5746 5746 5747 5749 5749 5750 5750 5751 5751 5752 5752 5752 5752 5753 5753 5753 5753 5753 5754 5754 5753 5753 5752 5752 5751 5750 5749 5749 5748 5747 5747 5746 5745 5744 5743 5741 5739 5738 5736 5735 5734 5733 5732
5645 5648 5651 5655 5658 5658 5660 5663 5666 5667 5669 5671 5672 5673 5675 5678 5680 5683 5685 5688 5690 5692 5695 5699 5703 5706 5708 5710 5712 5714 5717 5719 5722 5724 5726 5728 5731 5733 5735 5737 5739 5740 5741 5742 5743 5744 5745 5746 5746 5747 5748 5748 5749 5749 5749 5749 5750 5750 5750 5750 5750 5750 5750 5750 5750 5749 5749 5748 5747 5747 5746 5746 5745 5744 5743 5742 5741 5740 5739 5737 5736 5734 5733 5732 5730 5729
5644 5647 5650 5653 5654 5655 5657 5660 5663 5664 5666 5669 5671 5672 5673 5675 5678 5682 5684 5686 5688 5691 5694 5697 5701 5704 5706 5708 5710 5712 5715 5717 5720 5722 5724 5726 5729 5731 5732 5734 5735 5737 5738 5739 5740 5741 5742 5743 5743 5744 5745 5746 5746 5746 5747 5747 5747 5747 5747 5747 5747 5747 5747 5747 5747 5746 5746 5745 5745 5744 5744 5743 5742 5741 5740 5739 5738 5737 5736 5735 5733 5732 5731 5730 5728 5727
5643 5646 5648 5650 5652 5654 5656 5658 5659 5662 5665 5668 5670 5670 5672 5674 5678 5681 5683 5685 5687 5690 5692 5696 5700 5702 5704 5706 5708 5711 5713 5716 5718 5720 5722 5725 5727 5728 5729 5731 5732 5734 5735 5736 5737 5738 5739 5740 5741 5741 5742 5743 5743 5743 5744 5744 5744 5744 5744 5744 5744 5744 5744 5744 5744 5743 5743 5743 5742 5742 5741 5740 5740 5738 5737 5736 5735 5733 5732 5731 5730 5729 5728 5728 5727 5725
5641 5643 5646 5648 5651 5652 5654 5655 5658 5661 5664 5666 5667 5669 5670 5673 5676 5679 5681 5683 5686 5689 5691 5695 5698 5701 5702 5704 5707 5709 5711 5714 5716 5718 5720 5722 5724 5725 5726 5728 5730 5731 5733 5734 5735 5736 5736 5737 5738 5738 5739 5740 5740 5741 5741 5741 5741 5741 5741 5741 5741 5741 5741 5741 5741 5740 5740 5740 5740 5739 5738 5738 5737 5736 5734 5733 5732 5731 5729 5728 5727 5726 5725 5724 5724 5723
5638 5641 5644 5646 5649 5651 5652 5654 5657 5660 5662 5664 5666 5668 5670 5671 5674 5677 5679 5682 5685 5688 5690 5693 5696 5699 5701 5703 5705 5708 5710 5712 5714 5716 5718 5719 5721 5722 5724 5725 5727 5728 5730 5731 5732 5733 5734 5734 5735 5736 5736 5737 5737 5738 5738 5738 5738 5738 5738 5738 5738 5738 5738 5738 5738 5737 5737 5737 5737 5736 5735 5734 5734 5733 5732 5730 5729 5728 5726 5725 5724 5723 5722 5721 5721 5720
5636 5639 5642 5644 5647 5650 5651 5653 5656 5658 5660 5662 5664 5666 5668 5670 5673 5676 5678 5681 5684 5687 5689 5692 5695 5697 5699 5701 5703 5705 5708 5710 5712 5714 5715 5717 5718 5720 5721 5723 5724 5726 5727 5728 5729 5730 5731 5732 5732 5733 5733 5733 5734 5734 5735 5735 5735 5736 5736 5735 5735 5735 5735 5735 5734 5734 5734 5734 5733 5733 5732 5731 5730 5729 5728 5727 5726 5725 5723 5722 5721 5720 5719 5718 5717 5717
5635 5638 5641 5644 5646 5648 5651 5653 5654 5656 5658 5660 5662 5665 5667 5669 5672 5674 5676 5680 5683 5685 5688 5691 5693 5696 5698 5700 5701 5703 5706 5708 5710 5711 5712 5714 5716 5717 5719 5720 5722 5723 5724 5725 5726 5727 5728 5729 5730 5730 5730 5730 5731 5731 5731 5731 5732 5733 5732 5732 5732 5732 5732 5731 5731 5731 5730 5730 5730 5729 5729 5728 5727 5726 5725 5724 5723 5722 5721 5719 5718 5717 5716 5715 5714 5714
5634 5637 5640 5643 5645 5647 5649 5651 5653 5655 5657 5659 5662 5664 5666 5668 5670 5672 5675 5679 5682 5685 5687 5690 5692 5694 5696 5698 5700 5702 5704 5706 5707 5708 5709 5711 5713 5715 5716 5718 5719 5720 5722 5723 5724 5725 5725 5726 5726 5727 5727 5727 5728 5728 5728 5728 5729 5729 5729 5729 5729 5729 5728 5728 5728 5727 5727 5726 5726 5725 5725 5724 5723 5722 5721 5720 5719 5718 5717 5716 5715 5714 5713 5711 5711 5710
5634 5636 5639 5642 5644 5646 5648 5649 5652 5654 5656 5658 5660 5662 5664 5666 5667 5669 5674 5679 5681 5683 5686 5688 5690 5692 5694 5697 5699 5701 5702 5703 5705 5706 5708 5709 5711 5712 5713 5715 5716 5718 5719 5720 5721 5722 5722 5723 5723 5723 5724 5724 5725 5725 5725 5725 5725 5726 5725 5725 5725 5725 5725 5725 5724 5724 5723 5723 5722 5721 5721 5720 5719 5718 5717 5716 5715 5714 5714 5713 5712 5710 5709 5708 5707 5706
5634 5636 5639 5641 5643 5644 5646 5648 5651 5653 5655 5657 5659 5661 5662 5664 5666 5669 5674 5678 5680 5682 5684 5687 5689 5691 5693 5695 5697 5698 5699 5700 5702 5704 5705 5707 5708 5710 5711 5712 5713 5715 5716 5717 5718 5719 5719 5719 5720 5720 5721 5721 5721 5722 5722 5722 5722 5723 5722 5722 5722 5722 5722 5721 5721 5720 5720 5719 5718 5717 5717 5716 5715 5714 5713 5712 5712 5711 5710 5709 5708 5707 5705 5704 5703 5702
5634 5636 5638 5640 5641 5643 5645 5647 5650 5652 5654 5656 5658 5660 5662 5664 5667 5671 5675 5677 5679 5681 5683 5685 5687 5689 5691 5693 5694 5695 5696 5698 5700 5702 5703 5704 5706 5707 5708 5709 5710 5712 5713 5714 5715 5715 5716 5716 5717 5717 5717 5718 5718 5718 5719 5719 5719 5719 5719 5718 5719 5718 5718 5718 5717 5716 5716 5715 5714 5713 5713 5712 5711 5710 5709 5708 5708 5707 5706 5705 5704 5702 5701 5700 5698 5697
5633 5635 5638 5639 5641 5643 5645 5647 5649 5651 5653 5655 5657 5660 5662 5665 5668 5671 5673 5675 5677 5679 5681 5683 5685 5687 5688 5690 5691 5693 5694 5696 5697 5699 5700 5701 5703 5704 5705 5706 5707 5708 5710 5711 5711 5712 5712 5713 5713 5714 5714 5714 5714 5714 5715 5715 5715 5715 5715 5715 5715 5715 5715 5714 5713 5713 5712 5711 5710 5709 5709 5708 5707 5706 5705 5704 5703 5702 5701 5700 5699 5698 5697 5695 5694 5693
5632 5634 5636 5638 5640 5643 5645 5646 5648 5650 5652 5654 5656 5658 5661 5664 5666 5669 5671 5673 5675 5677 5679 5681 5682 5684 5686 5687 5689 5690 5692 5693 5695 5696 5698 5699 5701 5702 5702 5703 5705 5705 5706 5707 5708 5709 5709 5710 5710 5710 5710 5710 5710 5711 5711 5711 5711 5711 5711 5711 5711 5710 5710 5710 5709 5709 5708 5707 5706 5705 5704 5703 5703 5702 5701 5700 5699 5698 5697 5696 5694 5693 5692 5691 5689 5688
5632 5634 5636 5638 5640 5642 5644 5646 5648 5649 5651 5653 5655 5657 5659 5662 5664 5667 5669 5671 5673 5674 5676 5678 5679 5681 5683 5684 5686 5688 5689 5691 5692 5694 5695 5696 5697 5698 5700 5701 5702 5703 5703 5704 5705 5705 5706 5706 5707 5707 5707 5707 5707 5707 5707 5707 5707 5707 5707 5707 5707 5706 5706 5706 5705 5705 5704 5703 5702 5701 5700 5699 5698 5697 5696 5695 5694 5693 5692 5691 5690 5689 5688 5686 5685 5684
5631 5633 5635 5637 5639 5641 5643 5645 5647 5648 5650 5652 5654 5656 5658 5660 5662 5664 5666 5668 5670 5672 5673 5675 5677 5678 5680 5682 5683 5685 5687 5688 5690 5691 5692 5693 5694 5695 5697 5697 5698 5699 5700 5700 5701 5702 5702 5703 5704 5704 5704 5704 5703 5703 5703 5703 5704 5704 5704 5704 5703 5703 5703 5702 5701 5701 5700 5699 5698 5697 5696 5695 5694 5693 5692 5691 5690 5689 5688 5687 5686 5685 5683 5682 5681 5680
5631 5633 5634 5636 5638 5640 5642 5644 5646 5647 5649 5651 5653 5655 5657 5658 5660 5662 5664 5666 5667 5669 5671 5672 5674 5676 5678 5679 5681 5682 5684 5686 5687 5688 5689 5690 5691 5692 5693 5694 5695 5696 5696 5697 5697 5698 5699 5699 5700 5700 5700 5700 5700 5700 5700 5700 5700 5701 5701 5700 5700 5700 5699 5698 5698 5697 5696 5695 5694 5693 5692 5691 5690 5689 5688 5687 5686 5685 5684 5683 5682 5681 5679 5678 5677 5675
5629 5631 5633 5634 5636 5637 5639 5641 5643 5645 5647 5649 5651 5653 5655 5656 5658 5660 5662 5663 5665 5667 5669 5670 5672 5673 5675 5677 5678 5680 5681 5683 5684 5685 5686 5687 5688 5688 5689 5690 5692 5693 5693 5693 5694 5695 5695 5696 5696 5696 5697 5697 5697 5697 5697 5697 5697 5697 5697 5697 5696 5696 5695 5695 5694 5693 5693 5692 5691 5690 5689 5688 5686 5685 5684 5684 5682 5681 5680 5679 5677 5676 5675 5673 5672 5671
5627 5629 5631 5633 5634 5636 5638 5640 5642 5644 5646 5648 5650 5651 5652 5653 5655 5657 5659 5661 5663 5664 5666 5667 5669 5670 5672 5674 5675 5677 5678 5680 5681 5682 5683 5684 5685 5685 5686 5687 5688 5689 5690 5690 5690 5691 5692 5693 5693 5693 5694 5694 5694 5694 5694 5694 5694 5694 5694 5693 5693 5692 5692 5691 5691 5690 5689 5688 5688 5687 5685 5684 5683 5682 5680 5679 5678 5677 5676 5675 5673 5672 5670 5669 5667 5666